TimeCST,TemperatureF,Dew PointF,Humidity,Sea Level PressureIn,VisibilityMPH,Wind Direction,Wind SpeedMPH,Gust SpeedMPH,PrecipitationIn,Events,Conditions,WindDirDegrees,DateUTC
12:52 AM,36.0,28.0,73,30.16,10.0,North,6.9,-,N/A,,Overcast,360,2013-01-17 06:52:00
1:52 AM,34.0,26.1,73,30.18,10.0,NNW,9.2,-,N/A,,Mostly Cloudy,330,2013-01-17 07:52:00
2:06 AM,33.8,26.6,75,30.17,10.0,NNW,6.9,-,N/A,,Scattered Clouds,340,2013-01-17 08:06:00
2:52 AM,30.9,24.1,76,30.22,10.0,NW,10.4,-,N/A,,Clear,320,2013-01-17 08:52:00
3:19 AM,30.2,23.0,75,30.21,10.0,NNW,11.5,-,N/A,,Mostly Cloudy,330,2013-01-17 09:19:00
3:35 AM,28.4,21.2,74,30.21,10.0,NNW,6.9,-,N/A,,Scattered Clouds,330,2013-01-17 09:35:00
3:52 AM,28.0,21.9,78,30.24,10.0,NNW,8.1,-,N/A,,Clear,340,2013-01-17 09:52:00
4:52 AM,26.1,19.9,78,30.27,10.0,NW,9.2,-,N/A,,Clear,320,2013-01-17 10:52:00
5:52 AM,24.1,15.1,69,30.32,10.0,NNW,8.1,-,N/A,,Clear,330,2013-01-17 11:52:00
6:52 AM,21.9,12.0,66,30.34,10.0,NW,6.9,-,N/A,,Clear,320,2013-01-17 12:52:00
7:52 AM,21.9,10.0,60,30.36,10.0,Calm,Calm,-,N/A,,Clear,0,2013-01-17 13:52:00
8:52 AM,24.1,9.0,53,30.39,10.0,NNW,9.2,-,N/A,,Clear,330,2013-01-17 14:52:00
9:52 AM,26.1,10.9,53,30.43,10.0,NW,12.7,-,N/A,,Clear,320,2013-01-17 15:52:00
10:52 AM,27.0,10.9,51,30.43,10.0,NW,13.8,-,N/A,,Clear,310,2013-01-17 16:52:00
11:52 AM,28.9,12.0,49,30.41,10.0,NW,11.5,-,N/A,,Clear,320,2013-01-17 17:52:00
12:52 PM,30.9,10.9,43,30.40,10.0,NW,15.0,18.4,N/A,,Clear,320,2013-01-17 18:52:00
1:52 PM,30.9,10.9,43,30.40,10.0,NW,16.1,-,N/A,,Mostly Cloudy,310,2013-01-17 19:52:00
2:52 PM,32.0,12.9,45,30.38,10.0,West,8.1,-,N/A,,Clear,280,2013-01-17 20:52:00
3:52 PM,32.0,15.1,50,30.40,10.0,NW,10.4,-,N/A,,Clear,310,2013-01-17 21:52:00
4:52 PM,30.0,15.1,54,30.40,10.0,West,6.9,-,N/A,,Clear,270,2013-01-17 22:52:00
5:52 PM,28.0,15.1,58,30.43,10.0,WNW,4.6,-,N/A,,Clear,290,2013-01-17 23:52:00
6:52 PM,27.0,15.1,61,30.44,10.0,WNW,5.8,-,N/A,,Clear,290,2013-01-18 00:52:00
7:52 PM,23.0,15.1,72,30.45,10.0,West,4.6,-,N/A,,Clear,260,2013-01-18 01:52:00
8:52 PM,23.0,17.1,78,30.45,10.0,SSW,3.5,-,N/A,,Clear,200,2013-01-18 02:52:00
9:52 PM,19.9,16.0,85,30.44,10.0,Calm,Calm,-,N/A,,Clear,0,2013-01-18 03:52:00
10:52 PM,18.0,15.1,88,30.45,10.0,Calm,Calm,-,N/A,,Clear,0,2013-01-18 04:52:00
11:52 PM,19.9,15.1,81,30.44,10.0,Calm,Calm,-,N/A,,Clear,0,2013-01-18 05:52:00